Location: Indian Springs
(36.5700°N, 115.6700°W)
Time: 08:14:18
(UTC-07:00)

Amateur Radio Satellites - All Passes

Search period start: 25 October 2014 07:44
Search period end: 26 October 2014 07:44
Location: Indian Springs, 36.5700°N, 115.6700°W

Satellite Date Start Highest point End Downlink Frequencies (MHz)
Time Altitude Azimuth
PANSAT 25 Oct 07:56:38 07:59:38 22° 173° (S) 08:02:37 not established
RS-15 25 Oct 07:59:20 08:10:31 75° 245° (WSW) 08:22:12 29.354 - 29.394 USB, Beacon 29.352 USB
STRAND 1 25 Oct 08:14:33 08:16:57 13° 268° (W) 08:19:22 ?
HO-68 25 Oct 08:22:27 08:26:56 17° 92° (E) 08:31:24 435.675 MHz FM
Saudisat 1A 25 Oct 09:09:56 09:10:29 10° 318° (NW) 09:11:02 436.775 MHz
MaSat-1 25 Oct 09:11:35 09:14:04 49° 64° (ENE) 09:16:23 437.345 MHz
Oscar 10/S400 25 Oct 09:13:57 09:40:45 16° 161° (SSE) 09:53:58 145.825 - 145.975 CW/USB, Beacon 145.810 USB
PANSAT 25 Oct 09:36:14 09:39:17 22° 186° (S) 09:42:19 not established
UKube-1 25 Oct 09:48:41 09:52:32 30° 97° (E) 09:56:21 145.840 MHz, 145.915 MHz
HO-68 25 Oct 10:08:02 10:15:14 76° 288° (WNW) 10:22:23 435.675 MHz FM
RS-15 25 Oct 10:15:58 10:21:00 14° 262° (W) 10:26:09 29.354 - 29.394 USB, Beacon 29.352 USB
FUNcube-1 25 Oct 10:29:07 10:32:55 32° 97° (E) 10:36:38 145.950 - 145.970 MHz USB
Oscar 11 25 Oct 10:29:20 10:33:39 88° 103° (ESE) 10:37:57 145.825 FM, Beacon 2401.500 USB
ISS 25 Oct 10:54:07 10:54:53 11° 126° (SE) 10:55:40 145.800 FM
PANSAT 25 Oct 11:17:10 11:18:50 13° 198° (SSW) 11:20:31 not established
ZACube-1 25 Oct 11:20:30 11:24:40 57° 285° (WNW) 11:28:45 437.345 MHz
UKube-1 25 Oct 11:25:13 11:28:31 21° 292° (WNW) 11:31:48 145.840 MHz, 145.915 MHz
SO-50 25 Oct 11:31:26 11:34:14 16° 109° (ESE) 11:37:03 436.795 FM
PCSat 25 Oct 11:35:13 11:38:04 14° 46° (NE) 11:40:55 145.825 MHz
KITSAT 1 25 Oct 11:45:38 11:53:35 66° 113° (ESE) 12:01:34 435.175 FM
HO-68 25 Oct 11:58:44 12:01:43 13° 306° (NW) 12:04:43 435.675 MHz FM
Oscar 16 25 Oct 12:02:14 12:04:04 12° 62° (ENE) 12:05:54 437.025 USB, Beacon 2401.1428
FUNcube-1 25 Oct 12:06:09 12:09:02 18° 292° (WNW) 12:11:52 145.950 - 145.970 MHz USB
ISS 25 Oct 12:27:51 12:31:09 64° 321° (NW) 12:34:28 145.800 FM
Oscar 19 25 Oct 12:52:14 12:56:55 36° 70° (ENE) 13:01:36 437.125 CW, 437.150 USB
Sapphire 25 Oct 12:54:19 12:59:40 56° 60° (ENE) 13:04:59 437.095 MHz 1200 baud AX-25 AFSK
SO-50 25 Oct 13:10:03 13:14:21 45° 305° (NW) 13:18:47 436.795 FM
AO-27 25 Oct 13:12:29 13:16:34 24° 67° (ENE) 13:20:40 436.795 MHz FM
PCSat 25 Oct 13:16:44 13:22:11 85° 244° (WSW) 13:27:35 145.825 MHz
JAS-1B 25 Oct 13:21:13 13:27:08 59° 73° (ENE) 13:32:42 435.800 - 435.900 CW/SSB
AO-Echo 25 Oct 13:27:21 13:31:51 39° 71° (ENE) 13:36:32 ?
Oscar 16 25 Oct 13:37:33 13:42:43 78° 257° (WSW) 13:47:54 437.025 USB, Beacon 2401.1428
KITSAT 1 25 Oct 13:42:47 13:49:33 29° 313° (NW) 13:56:20 435.175 FM
Uribyol 2 25 Oct 13:58:27 14:03:37 70° 74° (ENE) 14:08:50 436.500 FM
ITAMSAT 1 25 Oct 14:04:40 14:09:51 75° 75° (ENE) 14:15:05 435.822 SSB
ISS 25 Oct 14:07:02 14:08:23 12° 338° (NNW) 14:09:45 145.800 FM
Gurwin Techsat 1B 25 Oct 14:29:02 14:34:16 66° 74° (ENE) 14:39:32 435.225 FM
UOSAT-12 25 Oct 14:29:12 14:33:48 79° 300° (WNW) 14:38:32 437.025 FM, 437.400 FM
Oscar 19 25 Oct 14:32:15 14:36:18 23° 265° (W) 14:40:22 437.125 CW, 437.150 USB
Sapphire 25 Oct 14:39:09 14:42:34 17° 256° (WSW) 14:45:59 437.095 MHz 1200 baud AX-25 AFSK
TMSAT-1 25 Oct 14:39:47 14:44:59 61° 74° (ENE) 14:50:13 436.925 FM
AO-27 25 Oct 14:51:01 14:55:49 38° 262° (W) 15:00:40 436.795 MHz FM
AO-Echo 25 Oct 15:07:14 15:10:46 20° 267° (W) 15:14:24 ?
AO-7 25 Oct 15:12:16 15:19:48 41° 63° (ENE) 15:27:21 29.400 - 29.500 MHz
Uosat F 25 Oct 15:14:24 15:17:44 18° 65° (ENE) 15:21:04 435.120 FM
JAS-1B 25 Oct 15:14:58 15:18:11 15° 267° (W) 15:21:18 435.800 - 435.900 CW/SSB
Uribyol 2 25 Oct 15:41:36 15:43:32 12° 269° (W) 15:45:30 436.500 FM
ITAMSAT 1 25 Oct 15:48:31 15:49:50 11° 270° (W) 15:51:10 435.822 SSB
Saudisat 1A 25 Oct 15:54:57 15:59:05 37° 54° (NE) 16:03:11 436.775 MHz
JAS-2 25 Oct 15:56:19 15:59:31 15° 57° (ENE) 16:02:54 435.800 - 435.900 CW/SSB, 435.910 FM
Gurwin Techsat 1B 25 Oct 16:12:12 16:14:39 13° 269° (W) 16:17:06 435.225 FM
UOSAT-12 25 Oct 16:13:36 16:14:44 11° 319° (NW) 16:15:53 437.025 FM, 437.400 FM
TMSAT-1 25 Oct 16:22:28 16:25:16 14° 268° (W) 16:28:05 436.925 FM
Uosat F 25 Oct 16:51:16 16:56:06 48° 260° (W) 17:00:58 435.120 FM
OPAL 25 Oct 17:00:53 17:04:13 18° 96° (E) 17:07:31 ?
AO-7 25 Oct 17:04:49 17:12:28 41° 260° (W) 17:20:11 29.400 - 29.500 MHz
ISS 25 Oct 17:23:39 17:24:31 11° 20° (NNE) 17:25:22 145.800 FM
Hamsat 25 Oct 17:27:26 17:31:29 49° 74° (ENE) 17:35:31 145.90 MHz
AO-40 25 Oct 17:31:15 23:30:37 48° 183° (S) 07:34:49 Beacon 2401.320
Saudisat 1A 25 Oct 17:35:11 17:38:22 20° 250° (WSW) 17:41:32 436.775 MHz
JAS-2 25 Oct 17:37:37 17:43:27 84° 257° (WSW) 17:50:10 435.800 - 435.900 CW/SSB, 435.910 FM
SO-67 25 Oct 18:05:14 18:06:36 12° 68° (ENE) 18:07:58 435.3500 MHz FM
OPAL 25 Oct 18:38:35 18:43:17 44° 290° (WNW) 18:47:57 ?
STRAND 1 25 Oct 18:46:04 18:50:19 26° 96° (E) 18:54:32 ?
HO-68 25 Oct 18:52:37 18:54:05 11° 52° (NE) 18:55:33 435.675 MHz FM
ISS 25 Oct 18:58:35 19:01:50 50° 38° (NE) 19:05:05 145.800 FM
Hamsat 25 Oct 19:06:15 19:07:40 11° 268° (W) 19:09:04 145.90 MHz
SO-67 25 Oct 19:36:10 19:39:15 31° 263° (W) 19:42:21 435.3500 MHz FM
KITSAT 1 25 Oct 19:42:20 19:48:28 23° 43° (NE) 19:54:33 435.175 FM
SO-50 25 Oct 20:05:27 20:07:06 12° 42° (NE) 20:08:45 436.795 FM
RS-15 25 Oct 20:11:54 20:19:10 20° 101° (E) 20:26:20 29.354 - 29.394 USB, Beacon 29.352 USB
STRAND 1 25 Oct 20:24:54 20:29:29 33° 291° (WNW) 20:34:03 ?
HO-68 25 Oct 20:33:21 20:40:24 65° 71° (ENE) 20:47:29 435.675 MHz FM
ISS 25 Oct 20:36:27 20:38:12 14° 232° (SW) 20:39:56 145.800 FM
UKube-1 25 Oct 20:42:23 20:45:33 20° 68° (ENE) 20:48:44 145.840 MHz, 145.915 MHz
Oscar 11 25 Oct 21:21:47 21:25:57 49° 74° (ENE) 21:30:07 145.825 FM, Beacon 2401.500 USB
FUNcube-1 25 Oct 21:23:17 21:26:46 22° 69° (ENE) 21:30:14 145.950 - 145.970 MHz USB
KITSAT 1 25 Oct 21:36:43 21:44:49 85° 244° (WSW) 21:52:53 435.175 FM
SO-50 25 Oct 21:43:32 21:48:25 80° 60° (ENE) 21:53:18 436.795 FM
Oscar 10/S400 25 Oct 22:11:04 23:07:36 48° 216° (SW) 06:12:16 145.825 - 145.975 CW/USB, Beacon 145.810 USB
ZACube-1 25 Oct 22:13:46 22:18:22 81° 77° (ENE) 22:22:54 437.345 MHz
UKube-1 25 Oct 22:17:38 22:21:30 32° 262° (W) 22:25:25 145.840 MHz, 145.915 MHz
RS-15 25 Oct 22:18:58 22:30:02 86° 299° (WNW) 22:41:01 29.354 - 29.394 USB, Beacon 29.352 USB
HO-68 25 Oct 22:23:25 22:28:32 21° 266° (W) 22:33:42 435.675 MHz FM
MaSat-1 25 Oct 22:45:09 22:48:52 31° 109° (ESE) 22:52:19 437.345 MHz
FUNcube-1 25 Oct 22:58:51 23:02:56 32° 263° (W) 23:07:00 145.950 - 145.970 MHz USB
Oscar 11 25 Oct 23:00:36 23:02:22 12° 268° (W) 23:04:09 145.825 FM, Beacon 2401.500 USB
UOSAT-12 25 Oct 23:01:17 23:05:49 45° 55° (NE) 23:10:15 437.025 FM, 437.400 FM
SO-50 25 Oct 23:27:51 23:28:18 10° 254° (WSW) 23:28:44 436.795 FM
KITSAT 1 25 Oct 23:35:14 23:39:00 14° 260° (W) 23:42:46 435.175 FM
MaSat-1 26 Oct 00:21:34 00:24:27 19° 300° (WNW) 00:27:10 437.345 MHz
RS-15 26 Oct 00:35:27 00:44:06 26° 324° (NW) 00:52:50 29.354 - 29.394 USB, Beacon 29.352 USB
UOSAT-12 26 Oct 00:42:27 00:45:35 18° 251° (WSW) 00:48:40 437.025 FM, 437.400 FM
JAS-1B 26 Oct 01:06:48 01:11:59 21° 96° (E) 01:17:45 435.800 - 435.900 CW/SSB
Oscar 19 26 Oct 01:07:32 01:10:28 15° 92° (E) 01:13:24 437.125 CW, 437.150 USB
AO-Echo 26 Oct 01:37:56 01:41:19 17° 92° (E) 01:44:41 ?
Oscar 16 26 Oct 01:51:56 01:56:50 45° 99° (E) 02:01:43 437.025 USB, Beacon 2401.1428
Uribyol 2 26 Oct 02:14:13 02:18:46 30° 97° (E) 02:23:16 436.500 FM
PCSat 26 Oct 02:14:52 02:18:19 17° 105° (ESE) 02:21:46 145.825 MHz
ITAMSAT 1 26 Oct 02:20:30 02:25:10 33° 97° (E) 02:29:48 435.822 SSB
Oscar 19 26 Oct 02:45:07 02:50:06 54° 287° (WNW) 02:55:04 437.125 CW, 437.150 USB
Gurwin Techsat 1B 26 Oct 02:48:09 02:52:53 32° 97° (E) 02:57:34 435.225 FM
JAS-1B 26 Oct 02:55:56 03:02:43 67° 287° (WNW) 03:10:53 435.800 - 435.900 CW/SSB
RS-15 26 Oct 02:57:32 03:02:18 13° 1° (N) 03:07:07 29.354 - 29.394 USB, Beacon 29.352 USB
TMSAT-1 26 Oct 02:58:36 03:03:11 29° 96° (E) 03:07:45 436.925 FM
AO-27 26 Oct 03:06:05 03:11:20 86° 284° (WNW) 03:16:33 436.795 MHz FM
AO-Echo 26 Oct 03:15:10 03:20:20 53° 287° (WNW) 03:25:28 ?
AO-7 26 Oct 03:19:24 03:22:44 13° 90° (E) 03:26:03 29.400 - 29.500 MHz
Oscar 16 26 Oct 03:32:15 03:35:49 20° 295° (WNW) 03:39:23 437.025 USB, Beacon 2401.1428
Sapphire 26 Oct 03:33:22 03:38:46 87° 115° (ESE) 03:44:13 437.095 MHz 1200 baud AX-25 AFSK
Uribyol 2 26 Oct 03:53:41 03:58:07 29° 292° (WNW) 04:02:32 436.500 FM
PCSat 26 Oct 03:55:55 04:01:13 55° 300° (WNW) 04:06:33 145.825 MHz
ITAMSAT 1 26 Oct 04:00:10 04:04:30 27° 292° (WNW) 04:08:49 435.822 SSB
OPAL 26 Oct 04:13:05 04:17:20 27° 66° (ENE) 04:21:33 ?
Gurwin Techsat 1B 26 Oct 04:28:13 04:32:42 29° 292° (WNW) 04:37:11 435.225 FM
TMSAT-1 26 Oct 04:38:26 04:43:01 31° 291° (WNW) 04:47:36 436.925 FM
JAS-2 26 Oct 04:50:21 04:55:48 20° 90° (E) 05:01:08 435.800 - 435.900 CW/SSB, 435.910 FM
JAS-1B 26 Oct 04:51:44 04:52:27 10° 302° (WNW) 04:53:10 435.800 - 435.900 CW/SSB
Uosat F 26 Oct 05:01:14 05:06:16 64° 102° (ESE) 05:11:15 435.120 FM
AO-7 26 Oct 05:08:12 05:16:34 80° 106° (ESE) 05:24:55 29.400 - 29.500 MHz
RS-15 26 Oct 05:11:28 05:20:28 27° 37° (NE) 05:29:41 29.354 - 29.394 USB, Beacon 29.352 USB
Hamsat 26 Oct 05:18:34 05:18:57 10° 91° (E) 05:19:20 145.90 MHz
Sapphire 26 Oct 05:20:08 05:22:55 14° 314° (NW) 05:25:42 437.095 MHz 1200 baud AX-25 AFSK
OPAL 26 Oct 05:51:26 05:56:03 33° 260° (W) 06:00:38 ?
PANSAT 26 Oct 05:53:05 05:54:33 12° 161° (SSE) 05:56:02 not established
STRAND 1 26 Oct 05:59:40 06:04:03 29° 68° (ENE) 06:08:27 ?
Saudisat 1A 26 Oct 06:00:23 06:03:10 17° 109° (ESE) 06:05:59 436.775 MHz
JAS-2 26 Oct 06:33:32 06:41:22 77° 286° (WNW) 06:49:05 435.800 - 435.900 CW/SSB, 435.910 FM
Uosat F 26 Oct 06:41:54 06:44:28 14° 297° (WNW) 06:47:01 435.120 FM
Hamsat 26 Oct 06:51:04 06:55:11 55° 285° (WNW) 06:59:19 145.90 MHz
SO-67 26 Oct 07:02:06 07:04:35 18° 95° (E) 07:07:02 435.3500 MHz FM
AO-7 26 Oct 07:02:33 07:08:26 22° 304° (NW) 07:14:20 29.400 - 29.500 MHz
PANSAT 26 Oct 07:31:05 07:34:06 22° 174° (S) 07:37:07 not established
